Precipitable_Water
0.65 0.64 0.61 0.63 0.64 0.60 0.55 0.53 0.52 0.50 0.48 0.46 0.45 0.55 0.68 0.78 0.78 0.86 0.80 0.91 1.11 1.55 1.70 1.59 1.58 1.53 1.50 1.30 1.36 1.27 0.77 0.59 0.56 0.55 0.70 0.95 0.93 1.08 1.12 0.98 1.13 1.18 1.15 1.34 1.58
0.66 0.64 0.62 0.59 0.60 0.63 0.58 0.52 0.50 0.49 0.47 0.45 0.44 0.48 0.61 0.76 0.67 0.72 0.87 1.07 1.24 1.45 1.42 1.41 1.29 1.36 1.23 1.20 1.21 1.05 0.77 0.73 0.77 0.70 0.70 0.88 0.97 1.00 0.97 0.95 0.96 1.14 1.35 1.51 1.65
0.68 0.65 0.62 0.60 0.58 0.59 0.61 0.54 0.49 0.48 0.46 0.45 0.43 0.46 0.57 0.70 0.55 0.69 0.96 1.12 1.26 1.39 1.43 1.46 1.35 1.26 1.14 1.21 1.11 1.07 0.80 0.91 0.90 0.80 0.82 0.89 0.91 1.03 0.96 0.86 0.92 0.99 1.30 1.49 1.56
0.69 0.66 0.64 0.62 0.60 0.56 0.58 0.57 0.49 0.46 0.44 0.44 0.43 0.45 0.53 0.56 0.43 0.83 1.05 1.15 1.24 1.32 1.34 1.27 1.18 1.11 1.05 1.05 1.17 0.99 1.06 1.00 0.94 0.96 0.88 0.86 0.95 0.92 0.96 0.92 1.08 1.23 1.39 1.51 1.49
0.64 0.64 0.64 0.62 0.59 0.56 0.53 0.56 0.51 0.44 0.43 0.43 0.44 0.46 0.35 0.34 0.50 0.85 1.14 1.24 1.25 1.21 1.17 1.09 1.05 1.06 0.99 1.08 1.14 1.08 1.07 1.10 0.96 1.01 1.03 0.98 0.85 0.82 0.86 1.00 1.13 1.24 1.32 1.32 1.39
0.61 0.62 0.61 0.59 0.56 0.55 0.52 0.50 0.52 0.45 0.41 0.42 0.46 0.47 0.30 0.28 0.52 0.88 1.07 1.21 1.13 1.07 1.03 1.08 1.06 1.16 1.12 1.14 1.08 1.12 1.17 1.10 1.02 1.04 1.05 1.01 0.94 0.87 0.76 0.95 1.04 1.08 1.14 1.22 1.27
0.62 0.61 0.59 0.57 0.53 0.53 0.50 0.46 0.49 0.46 0.41 0.42 0.49 0.41 0.24 0.31 0.63 0.84 1.04 0.97 0.98 0.91 0.95 1.09 1.14 1.14 1.15 1.10 1.26 1.17 1.01 1.07 1.08 1.07 1.05 1.07 0.89 0.77 0.82 0.89 0.95 0.99 1.07 1.08 1.16
0.62 0.59 0.56 0.55 0.53 0.51 0.48 0.44 0.44 0.48 0.41 0.45 0.49 0.35 0.15 0.29 0.51 0.57 0.71 0.77 0.85 0.97 0.99 1.16 1.19 1.19 1.17 1.24 1.16 1.06 1.06 0.88 1.00 1.05 1.07 0.97 0.68 0.93 1.04 1.03 1.01 1.04 1.08 1.13 1.17
0.61 0.57 0.54 0.52 0.52 0.50 0.47 0.42 0.43 0.54 0.46 0.54 0.35 0.27 0.14 0.33 0.43 0.53 0.64 0.62 0.72 0.79 0.98 1.21 1.18 1.10 1.10 0.96 0.90 1.00 0.85 0.85 0.85 1.04 1.00 0.92 0.72 0.87 1.02 1.02 1.01 1.08 1.13 1.18 1.24
0.60 0.57 0.53 0.50 0.51 0.49 0.46 0.45 0.65 0.57 0.57 0.54 0.41 0.22 0.21 0.20 0.40 0.48 0.64 0.65 0.64 0.75 0.89 0.97 0.98 0.90 0.92 0.82 0.67 0.79 0.84 0.87 0.81 0.97 0.98 0.86 0.76 0.86 0.94 0.94 0.96 1.02 1.08 1.13 1.20
0.60 0.58 0.55 0.50 0.51 0.51 0.49 0.50 0.41 0.40 0.42 0.24 0.18 0.15 0.21 0.29 0.41 0.44 0.57 0.61 0.61 0.63 0.67 0.84 0.77 0.73 0.79 0.86 0.89 0.92 0.81 0.77 0.85 1.00 0.94 0.86 0.74 0.78 0.84 0.90 0.93 0.96 1.01 1.02 1.08
0.58 0.57 0.56 0.50 0.51 0.54 0.58 0.45 0.44 0.47 0.29 0.31 0.28 0.28 0.33 0.36 0.31 0.43 0.53 0.49 0.56 0.60 0.67 0.66 0.65 0.78 0.83 0.88 0.84 0.81 0.75 0.75 0.83 1.02 1.02 0.89 0.73 0.80 0.83 0.87 0.92 0.94 1.00 1.05 1.06
0.56 0.55 0.55 0.50 0.53 0.51 0.50 0.50 0.61 0.56 0.31 0.25 0.25 0.23 0.26 0.30 0.26 0.36 0.41 0.46 0.56 0.60 0.59 0.60 0.66 0.75 0.79 0.81 0.78 0.81 0.72 0.76 0.78 1.00 1.06 0.88 0.69 0.72 0.75 0.88 0.98 1.02 1.07 1.09 1.10
0.56 0.53 0.52 0.51 0.46 0.47 0.46 0.61 0.61 0.55 0.17 0.16 0.19 0.19 0.25 0.29 0.22 0.33 0.32 0.43 0.50 0.57 0.60 0.64 0.72 0.72 0.76 0.73 0.76 0.69 0.83 0.83 0.82 0.83 0.69 0.82 0.49 0.62 0.64 0.73 0.90 0.98 1.06 1.03 1.06
0.53 0.52 0.53 0.54 0.46 0.43 0.52 0.61 0.59 0.43 0.06 0.16 0.21 0.31 0.23 0.19 0.23 0.25 0.31 0.42 0.52 0.59 0.61 0.63 0.67 0.65 0.69 0.73 0.81 0.71 0.78 0.80 0.79 0.70 0.66 0.65 0.52 0.57 0.68 0.61 0.77 0.93 0.97 1.03 1.08
0.49 0.50 0.52 0.47 0.49 0.51 0.66 0.61 0.52 0.19 0.06 0.15 0.22 0.17 0.18 0.19 0.22 0.24 0.27 0.41 0.62 0.60 0.64 0.63 0.69 0.66 0.67 0.84 0.87 0.82 0.77 0.81 0.83 0.70 0.50 0.63 0.58 0.47 0.50 0.55 0.68 0.87 0.96 1.04 1.03
0.50 0.47 0.45 0.45 0.30 0.55 0.62 0.53 0.24 0.12 0.18 0.17 0.19 0.17 0.14 0.16 0.20 0.22 0.23 0.24 0.42 0.45 0.49 0.58 0.61 0.65 0.75 0.74 0.82 0.76 0.66 0.55 0.51 0.45 0.43 0.64 0.57 0.52 0.64 0.71 0.68 0.82 0.91 0.99 1.02
0.50 0.47 0.45 0.39 0.43 0.49 0.51 0.35 0.15 0.17 0.17 0.25 0.24 0.20 0.13 0.16 0.19 0.21 0.22 0.20 0.36 0.54 0.53 0.47 0.43 0.58 0.75 0.68 0.63 0.64 0.63 0.53 0.39 0.41 0.43 0.60 0.42 0.43 0.62 0.80 0.80 0.87 0.90 0.94 0.90
0.51 0.43 0.39 0.39 0.47 0.48 0.37 0.23 0.17 0.19 0.26 0.23 0.22 0.18 0.12 0.15 0.18 0.19 0.20 0.22 0.29 0.52 0.46 0.44 0.44 0.63 0.67 0.69 0.69 0.64 0.64 0.74 0.58 0.57 0.41 0.45 0.53 0.52 0.59 0.65 0.74 0.76 0.76 0.71 0.75
0.44 0.38 0.39 0.55 0.52 0.42 0.29 0.19 0.23 0.31 0.29 0.27 0.21 0.25 0.16 0.14 0.15 0.17 0.18 0.22 0.25 0.41 0.56 0.53 0.47 0.58 0.69 0.71 0.74 0.69 0.76 0.54 0.53 0.31 0.27 0.39 0.42 0.38 0.51 0.58 0.70 0.73 0.69 0.55 0.61
0.44 0.30 0.54 0.58 0.48 0.34 0.22 0.24 0.24 0.29 0.28 0.25 0.26 0.26 0.25 0.20 0.19 0.15 0.13 0.20 0.26 0.35 0.51 0.52 0.52 0.54 0.67 0.56 0.59 0.61 0.60 0.65 0.59 0.47 0.31 0.32 0.35 0.53 0.54 0.63 0.68 0.74 0.75 0.64 0.57
0.40 0.27 0.67 0.57 0.28 0.30 0.25 0.29 0.31 0.27 0.27 0.25 0.26 0.24 0.23 0.23 0.21 0.22 0.16 0.18 0.27 0.39 0.44 0.52 0.50 0.43 0.46 0.53 0.61 0.69 0.64 0.66 0.47 0.41 0.47 0.41 0.37 0.59 0.63 0.67 0.74 0.75 0.76 0.70 0.72
0.35 0.39 0.74 0.60 0.26 0.26 0.28 0.26 0.27 0.25 0.23 0.22 0.22 0.26 0.30 0.26 0.23 0.25 0.23 0.25 0.30 0.32 0.45 0.50 0.43 0.37 0.40 0.45 0.57 0.62 0.67 0.67 0.63 0.58 0.47 0.39 0.40 0.60 0.65 0.68 0.71 0.71 0.73 0.79 0.83
0.42 0.34 0.62 0.64 0.52 0.40 0.34 0.31 0.29 0.38 0.33 0.33 0.29 0.31 0.27 0.25 0.29 0.23 0.23 0.27 0.30 0.29 0.49 0.49 0.43 0.40 0.35 0.38 0.48 0.51 0.62 0.64 0.63 0.55 0.50 0.48 0.48 0.56 0.56 0.61 0.70 0.76 0.83 0.87 0.87
0.47 0.41 0.76 0.53 0.50 0.50 0.50 0.48 0.39 0.37 0.43 0.42 0.31 0.30 0.30 0.25 0.27 0.23 0.26 0.28 0.31 0.34 0.42 0.45 0.37 0.39 0.42 0.38 0.47 0.51 0.55 0.64 0.58 0.58 0.52 0.52 0.52 0.55 0.58 0.65 0.75 0.84 0.90 0.91 0.92
0.46 0.49 0.62 0.65 0.67 0.57 0.53 0.44 0.42 0.41 0.44 0.34 0.34 0.37 0.36 0.29 0.26 0.26 0.28 0.29 0.28 0.34 0.38 0.43 0.36 0.39 0.36 0.40 0.44 0.50 0.59 0.62 0.61 0.60 0.58 0.59 0.59 0.72 0.85 0.88 0.85 0.86 0.91 0.87 1.00
0.70 0.69 0.60 0.56 0.64 0.60 0.56 0.55 0.51 0.53 0.51 0.51 0.46 0.41 0.36 0.33 0.39 0.39 0.39 0.38 0.38 0.29 0.30 0.37 0.38 0.37 0.30 0.40 0.40 0.38 0.51 0.61 0.61 0.61 0.60 0.56 0.65 0.85 0.84 0.81 0.84 0.90 0.91 0.95 1.09
Wind_Speed
13 13 12 12 12 11 11 11 10 10 9 9 8 8 8 6 6 5 3 2 5 6 6 7 8 8 8 8 9 9 11 9 8 10 10 11 13 10 10 14 11 8 13 14 15
14 14 14 13 13 12 12 12 11 10 10 9 8 8 8 8 8 8 5 6 6 8 11 10 8 7 7 8 8 9 9 8 9 9 11 12 12 11 13 12 10 12 13 15 14
15 15 15 15 14 14 13 12 12 11 10 9 8 8 9 9 9 9 9 9 8 7 6 7 6 6 7 6 7 8 7 7 10 10 12 12 11 11 11 7 10 14 14 15 13
16 16 16 16 16 15 15 14 12 12 11 10 9 8 9 10 10 9 11 11 10 7 3 4 5 5 5 5 5 5 5 7 10 11 11 10 10 9 6 8 12 14 14 13 12
17 17 17 17 17 17 16 16 14 12 12 10 9 9 10 12 11 11 11 13 11 8 4 3 5 5 6 6 5 7 7 6 10 12 11 11 9 7 6 10 12 12 13 12 10
18 18 18 18 18 17 17 17 16 14 13 12 10 9 11 13 12 12 13 14 10 8 4 1 3 4 6 5 7 7 5 8 9 11 11 10 8 6 7 10 12 12 11 9 9
19 19 19 19 18 18 18 18 17 16 14 12 11 11 13 18 14 14 14 13 11 7 3 2 2 3 6 5 6 8 11 10 9 8 10 11 7 6 9 10 11 9 10 8 9
18 19 19 19 19 19 18 18 18 18 15 13 12 12 14 17 17 17 17 14 11 9 5 0 5 5 3 5 4 6 6 7 7 9 8 6 4 5 10 11 9 8 8 7 7
19 19 19 19 19 19 18 18 18 16 14 13 12 12 14 15 18 19 20 14 12 9 7 6 6 4 4 4 1 3 6 6 6 7 7 5 5 6 9 9 8 7 7 7 6
19 19 19 19 18 18 17 16 14 14 14 14 14 12 14 15 18 20 21 17 13 9 7 6 4 4 5 4 5 8 7 6 6 5 5 4 5 8 8 8 8 7 7 8 7
19 19 18 18 17 16 13 11 12 15 16 17 14 14 13 15 18 21 21 19 16 11 10 8 5 7 6 6 7 9 8 6 6 5 6 4 6 9 8 8 8 8 9 8 7
19 19 18 18 17 14 10 10 9 13 16 18 19 19 17 16 18 22 23 20 17 15 11 7 9 8 4 7 8 8 6 4 4 5 5 4 5 8 8 8 9 10 9 8 7
18 18 18 17 16 12 12 11 10 9 13 16 19 19 18 19 21 23 24 21 18 16 14 12 8 6 8 8 6 4 3 6 7 7 6 6 1 5 7 6 8 9 7 6 7
17 17 17 16 12 13 13 12 10 10 9 15 17 20 20 18 19 24 24 23 19 19 16 11 9 8 10 6 6 5 7 7 9 6 6 5 2 4 9 8 8 9 8 7 6
17 17 16 15 15 13 13 12 10 10 8 11 16 17 21 20 18 23 24 23 24 20 15 12 9 9 6 7 9 4 9 9 5 5 9 6 5 2 9 9 9 9 9 7 6
17 16 16 14 15 16 14 13 11 8 11 9 15 19 21 21 17 22 23 24 23 20 16 15 11 6 4 5 7 8 7 4 4 6 5 7 6 2 9 13 10 9 9 8 7
18 17 15 14 13 13 13 13 11 12 8 9 11 17 21 21 19 21 24 26 25 20 18 12 12 8 8 8 6 8 9 5 5 7 8 6 5 4 7 10 12 10 9 8 8
20 19 15 16 15 14 14 13 13 13 13 10 10 16 22 22 21 20 22 25 25 20 17 15 9 12 13 12 9 11 6 3 8 9 8 7 5 4 9 12 11 9 6 5 8
20 16 16 16 18 18 16 15 16 14 13 10 9 14 18 22 22 20 23 25 28 26 18 14 11 10 14 12 11 8 5 7 9 7 8 7 4 5 10 10 10 9 7 7 9
18 16 16 16 18 19 18 20 17 16 12 12 11 11 15 20 22 23 24 25 27 28 23 16 11 10 12 12 7 8 11 6 6 10 9 6 6 9 10 10 9 10 9 9 8
17 15 15 16 18 19 20 22 21 19 16 14 15 12 14 16 20 22 25 22 30 28 25 21 14 9 13 15 13 8 7 4 11 10 10 9 7 11 13 11 11 10 9 9 8
17 16 15 18 17 19 20 22 21 22 21 21 20 20 19 17 20 23 22 28 29 29 27 25 17 16 16 13 11 11 9 10 12 13 9 9 7 10 13 12 11 10 9 8 7
20 19 18 20 18 20 21 23 24 24 25 25 24 23 19 20 18 23 24 25 25 30 29 26 19 15 11 9 10 13 14 10 13 11 13 11 7 7 13 11 10 11 10 7 5
21 21 21 23 21 20 22 23 23 23 25 27 28 27 25 24 25 23 23 24 23 29 32 26 21 20 18 15 12 17 15 10 12 12 14 13 8 8 13 13 11 11 9 6 4
24 24 23 21 23 24 23 21 22 23 26 26 28 30 28 25 24 27 26 25 28 29 29 28 25 22 20 14 15 22 22 13 13 13 16 15 12 12 15 14 12 11 9 7 5
26 25 25 25 23 24 26 26 26 25 27 28 30 31 31 32 31 24 24 24 28 28 30 28 24 23 22 18 19 20 24 19 17 13 10 14 11 11 11 14 12 11 10 7 5
26 27 27 27 25 23 24 23 24 24 29 32 31 31 34 37 32 29 28 30 32 27 30 29 27 22 21 18 16 16 27 23 16 15 16 15 17 15 15 15 13 11 10 7 5
Wind_Direction
309 308 305 303 305 306 306 304 295 298 299 297 282 263 254 255 242 203 200 127 106 101 67 83 78 69 71 66 62 74 72 79 99 113 118 125 112 117 105 110 114 105 117 119 121
304 304 303 301 297 299 301 300 293 291 292 292 282 259 249 245 218 212 203 157 130 121 82 93 73 58 68 64 71 75 81 82 99 111 123 127 122 116 121 116 102 114 118 124 123
300 301 301 298 295 291 293 296 294 285 285 284 279 258 244 229 212 208 194 173 156 142 95 72 60 46 74 70 75 79 90 81 94 102 121 123 121 129 126 120 126 130 131 131 126
297 298 298 297 293 290 285 288 289 282 279 276 273 253 236 210 195 199 192 182 171 155 108 78 34 56 62 75 77 70 79 94 98 101 108 124 124 132 136 135 132 133 133 134 133
294 295 295 295 293 289 283 279 281 280 272 268 264 245 217 208 208 192 183 181 172 163 145 60 58 95 83 91 87 102 68 96 110 110 107 109 120 125 142 144 140 142 141 143 140
292 293 293 292 292 289 282 275 273 273 269 261 250 233 213 205 196 190 180 177 181 174 173 147 90 108 83 96 97 92 80 103 112 122 115 103 104 87 137 149 155 152 156 151 154
290 291 291 290 290 288 283 274 267 265 262 252 234 222 212 203 187 183 185 189 186 191 187 228 132 115 107 107 118 94 103 96 89 101 106 99 78 103 130 140 156 163 169 172 175
291 291 290 290 290 288 283 274 264 261 249 234 221 218 215 208 206 203 196 197 200 198 211 258 155 127 108 128 111 115 109 111 103 123 128 76 112 113 130 135 143 157 169 180 181
290 290 290 289 289 288 283 274 263 242 227 218 217 214 219 210 203 202 197 191 184 193 185 148 132 125 106 119 131 169 147 135 118 148 130 84 112 145 140 143 148 154 158 163 164
290 291 290 289 288 287 282 273 242 223 219 218 218 217 216 201 202 199 194 192 187 174 166 161 141 128 110 114 131 173 151 137 130 127 144 97 136 150 155 145 149 151 149 152 149
289 289 290 289 286 285 274 243 238 230 228 221 215 215 211 207 200 195 192 190 191 188 177 180 158 164 167 121 111 117 135 140 158 155 129 132 140 161 156 146 142 143 136 136 143
289 289 288 287 284 273 251 236 235 239 236 225 223 218 216 208 202 198 193 192 191 189 179 171 187 196 156 143 126 112 118 156 172 175 146 125 150 163 154 152 151 150 143 137 127
290 288 287 284 276 247 244 233 250 253 229 228 216 212 208 201 201 201 194 194 192 190 183 180 187 157 166 156 152 159 116 148 163 145 116 131 125 181 180 162 164 168 154 146 136
293 290 286 283 247 252 234 243 261 237 227 225 213 215 201 195 204 199 196 191 195 192 182 192 194 172 160 184 170 170 196 151 141 147 158 143 135 193 189 183 172 176 169 165 156
296 290 282 268 253 241 237 249 249 221 225 211 204 204 199 195 198 196 193 193 191 187 176 185 168 163 173 201 176 207 176 181 124 128 136 138 98 172 177 192 194 177 181 176 174
301 293 281 256 247 240 241 242 217 215 224 219 201 199 192 197 198 191 193 190 188 191 198 200 202 203 213 150 165 137 121 127 164 153 152 159 127 129 163 182 187 187 194 194 175
298 290 274 254 234 229 235 217 212 210 223 213 203 202 200 195 198 194 192 189 191 191 203 204 209 217 177 142 159 141 125 104 122 152 165 163 136 195 178 171 177 171 179 184 176
296 286 264 245 234 226 218 210 214 219 220 221 215 208 200 195 198 196 193 194 195 188 190 192 220 194 193 188 173 168 175 183 173 172 163 155 165 152 157 165 161 159 161 158 165
292 276 261 245 229 221 214 215 217 215 220 223 219 200 198 202 199 199 199 201 199 194 191 189 211 202 184 175 167 185 202 170 144 155 150 166 166 136 139 151 147 145 138 143 153
286 273 256 241 220 219 222 225 223 219 219 216 203 198 197 206 202 198 201 205 202 199 198 197 194 192 185 177 183 180 161 148 162 160 157 162 159 163 151 154 144 138 132 127 136
279 267 258 228 221 226 226 228 228 225 220 216 207 207 204 198 206 210 209 207 200 200 196 195 186 195 187 192 196 191 189 169 169 163 160 155 177 170 167 161 151 149 141 131 129
273 259 252 220 231 232 227 226 229 227 224 223 219 213 213 213 213 210 209 204 197 194 195 198 196 210 210 219 208 212 198 181 176 181 162 161 176 167 175 163 159 158 148 126 108
269 254 244 231 234 233 233 231 229 225 223 220 218 211 209 207 211 212 210 204 203 198 195 196 206 205 220 216 207 193 185 160 162 172 188 163 183 170 168 162 162 153 145 135 118
260 252 242 232 234 231 230 231 229 227 224 219 219 218 220 222 213 214 209 206 205 201 199 198 202 200 203 203 199 187 189 197 184 192 188 191 185 171 169 165 159 154 154 144 137
250 245 239 238 234 234 233 231 229 226 224 220 220 218 215 216 214 215 215 212 211 200 198 199 203 202 207 216 203 196 194 195 189 189 187 190 188 181 175 168 169 164 163 155 144
247 242 240 236 235 231 228 230 230 229 225 224 220 222 221 215 212 209 205 207 206 199 198 203 204 200 211 209 205 209 212 207 205 194 194 179 196 177 174 164 164 169 167 161 159
245 240 236 232 230 227 228 229 231 235 228 225 224 218 218 218 217 220 221 219 214 205 200 197 197 197 211 205 205 219 208 206 208 203 194 188 193 178 172 170 170 170 171 170 175